Simultaneous Nadir Overpasses (SNOs) Predictions

Prediction of SNOs over PacNW region [( 10.00, 139.50) to ( 22.70, 165.60)] between AQUA and NPP Satellites:

Table of predicted SNOs over PacNW region for the next 30.0 days since TLE Epoch: 10/8/2022
Index Date (AQUA) Time (AQUA) AQUA Lat,Lon Date (NPP) Time (NPP) NPP Lat,Lon Distance(km) Time Diff (sec)
1 10/15/2022 03:44:06 17.25, 146.70 10/15/2022 03:45:36 16.34, 142.44 464.61 90
2 10/17/2022 15:44:57 10.05, 150.54 10/17/2022 15:41:28 9.15, 147.46 351.97 209
3 10/23/2022 02:50:42 12.58, 160.82 10/23/2022 02:53:29 11.60, 156.25 508.89 167
4 10/25/2022 14:52:46 10.06, 163.63 10/25/2022 14:50:20 10.35, 160.44 350.84 146
5 10/25/2022 16:28:09 22.65, 141.77 10/25/2022 16:28:09 23.31, 138.16 376.75 0
6 11/02/2022 15:35:49 22.64, 154.90 11/02/2022 15:37:17 23.56, 150.94 418.50 88
